Torna al catalogo

STARLINK-2040

AttivoComunicazioniVLEO
NORAD 47656·PAYLOAD·🇺🇸 United States

Lanciato Feb 16, 2021 da Cape Canaveral Space Force Station

Loading…

Prossimi Passaggi (prossime 24 ore)

TLE

AggiornatoSource: CelesTrak SupGP

Epoca: Sep 15, 2026, 01:37 UTC

1 47656C 21012AN  26258.06784722 -.00013830  00000+0 -44477-3 0  2586
2 47656  53.1568 248.2003 0001293  96.8120 240.3014 15.31706157    19

Traccia STARLINK-2040 in tempo reale con AllMySat

Download on the App Store